Location: Mountain Lakes
(44.1215°N, 71.9554°W)
Time: 07:40:07
(UTC+00:00)

BlueWalker 3 - Visible Passes

Search period start: 10 December 2025 00:00
Search period end: 20 December 2025 00:00
Orbit: 455 x 462 km, 53.2° (Epoch: 09 December)

Date Brightness Start Highest point End Pass type
(mag) Time Alt. Az. Time Alt. Az. Time Alt. Az.
10 Dec 5.2 23:14:57 10° WSW 23:15:41 10° SW 23:16:26 10° SW visible
11 Dec 5.0 22:39:02 10° W 22:40:57 14° SW 22:42:52 10° SSW visible
12 Dec 4.9 22:03:40 10° W 22:06:10 18° SW 22:08:40 10° S visible
19 Dec 3.9 11:26:41 10° SSW 11:29:51 31° SE 11:33:04 10° ENE visible
